Hourly Weather Jucurutu

Today, 26 November, Thursday

Time Temperature Precipitation Wind Pressure Humidity
00:00 +27°C° 0 mm 4 mps 749 mmHg 65%
01:00 +27°C° 0 mm 3 mps 749 mmHg 68%
02:00 +26°C° 0 mm 3 mps 749 mmHg 71%
03:00 +26°C° 0 mm 3 mps 749 mmHg 73%
04:00 +25°C° 0 mm 2 mps 748 mmHg 75%
05:00 +25°C° 0 mm 3 mps 749 mmHg 74%
06:00 +26°C° 0 mm 3 mps 749 mmHg 73%
07:00 +26°C° 0 mm 4 mps 749 mmHg 71%
08:00 +29°C° 0 mm 5 mps 749 mmHg 61%
09:00 +32°C° 0 mm 6 mps 749 mmHg 50%
10:00 +35°C° 0 mm 7 mps 750 mmHg 39%
11:00 +36°C° 0 mm 6 mps 749 mmHg 34%
12:00 +39°C° 0 mm 6 mps 748 mmHg 30%
13:00 +41°C° 0 mm 6 mps 748 mmHg 25%
14:00 +41°C° 0 mm 6 mps 747 mmHg 24%
15:00 +41°C° 0 mm 6 mps 747 mmHg 24%
16:00 +41°C° 0 mm 6 mps 746 mmHg 23%
17:00 +39°C° 0 mm 7 mps 746 mmHg 27%
18:00 +38°C° 0 mm 8 mps 747 mmHg 31%
19:00 +35°C° 0 mm 9 mps 747 mmHg 35%
20:00 +33°C° 0 mm 9 mps 748 mmHg 42%
21:00 +32°C° 0 mm 9 mps 748 mmHg 50%
22:00 +29°C° 0 mm 9 mps 749 mmHg 57%
23:00 +28°C° 0 mm 8 mps 749 mmHg 60%

Tomorrow, 27 November, Friday

Time Temperature Precipitation Wind Pressure Humidity
00:00 +28°C° 0 mm 7 mps 749 mmHg 63%
01:00 +27°C° 0 mm 6 mps 749 mmHg 66%
02:00 +27°C° 0 mm 5 mps 749 mmHg 68%
03:00 +26°C° 0 mm 4 mps 748 mmHg 69%
04:00 +26°C° 0 mm 3 mps 748 mmHg 70%
05:00 +26°C° 0 mm 4 mps 748 mmHg 69%
06:00 +26°C° 0 mm 5 mps 749 mmHg 68%
07:00 +27°C° 0 mm 5 mps 749 mmHg 67%
08:00 +29°C° 0 mm 6 mps 750 mmHg 57%
09:00 +33°C° 0 mm 6 mps 750 mmHg 47%
10:00 +35°C° 0 mm 7 mps 750 mmHg 37%
11:00 +38°C° 0 mm 7 mps 749 mmHg 34%
12:00 +39°C° 0 mm 7 mps 749 mmHg 31%
13:00 +41°C° 0 mm 7 mps 748 mmHg 28%
14:00 +40°C° 0 mm 7 mps 747 mmHg 29%
15:00 +40°C° 0 mm 7 mps 747 mmHg 30%
16:00 +40°C° 0 mm 8 mps 746 mmHg 30%
17:00 +38°C° 0 mm 8 mps 746 mmHg 33%
18:00 +37°C° 0 mm 8 mps 747 mmHg 36%
19:00 +35°C° 0 mm 8 mps 747 mmHg 39%
20:00 +33°C° 0 mm 8 mps 748 mmHg 46%
21:00 +31°C° 0 mm 8 mps 749 mmHg 54%
22:00 +29°C° 0 mm 8 mps 749 mmHg 61%
23:00 +28°C° 0 mm 7 mps 749 mmHg 63%

Day after tomorrow, 28 November, Saturday

Time Temperature Precipitation Wind Pressure Humidity
00:00 +27°C° 0 mm 6 mps 749 mmHg 66%
01:00 +27°C° 0 mm 4 mps 749 mmHg 68%
02:00 +26°C° 0 mm 4 mps 749 mmHg 68%
03:00 +26°C° 0 mm 4 mps 749 mmHg 69%
04:00 +26°C° 0 mm 3 mps 749 mmHg 69%
05:00 +26°C° 0 mm 3 mps 749 mmHg 68%
06:00 +26°C° 0 mm 4 mps 749 mmHg 67%
07:00 +26°C° 0 mm 4 mps 750 mmHg 66%
08:00 +29°C° 0 mm 5 mps 750 mmHg 59%
09:00 +32°C° 0 mm 6 mps 750 mmHg 51%
10:00 +34°C° 0 mm 7 mps 750 mmHg 44%
11:00 +36°C° 0 mm 7 mps 750 mmHg 38%
12:00 +39°C° 0 mm 7 mps 749 mmHg 33%
13:00 +40°C° 0 mm 6 mps 749 mmHg 27%
14:00 +41°C° 0 mm 6 mps 748 mmHg 25%
15:00 +41°C° 0 mm 7 mps 747 mmHg 23%
16:00 +41°C° 0 mm 7 mps 747 mmHg 21%
17:00 +39°C° 0 mm 7 mps 747 mmHg 28%
18:00 +37°C° 0 mm 8 mps 747 mmHg 34%
19:00 +34°C° 0 mm 9 mps 748 mmHg 41%
20:00 +33°C° 0 mm 9 mps 748 mmHg 47%
21:00 +31°C° 0 mm 10 mps 749 mmHg 53%
22:00 +28°C° 0 mm 10 mps 749 mmHg 60%
23:00 +28°C° 0 mm 8 mps 749 mmHg 61%

29 November, Sunday

Time Temperature Precipitation Wind Pressure Humidity
00:00 +27°C° 0 mm 7 mps 749 mmHg 63%
01:00 +27°C° 0 mm 5 mps 749 mmHg 65%
02:00 +26°C° 0 mm 5 mps 749 mmHg 67%
03:00 +26°C° 0 mm 4 mps 749 mmHg 69%
04:00 +25°C° 0 mm 4 mps 749 mmHg 71%
05:00 +26°C° 0 mm 4 mps 749 mmHg 69%
06:00 +26°C° 0 mm 4 mps 749 mmHg 67%
07:00 +26°C° 0 mm 4 mps 750 mmHg 65%
08:00 +29°C° 0 mm 5 mps 750 mmHg 55%
09:00 +32°C° 0 mm 6 mps 750 mmHg 44%
10:00 +35°C° 0 mm 7 mps 750 mmHg 34%
11:00 +38°C° 0 mm 7 mps 749 mmHg 30%
12:00 +39°C° 0 mm 7 mps 749 mmHg 27%
13:00 +41°C° 0 mm 6 mps 748 mmHg 24%
14:00 +41°C° 0 mm 7 mps 747 mmHg 24%
15:00 +41°C° 0 mm 7 mps 747 mmHg 24%
16:00 +41°C° 0 mm 7 mps 746 mmHg 24%
17:00 +39°C° 0 mm 7 mps 747 mmHg 31%
18:00 +37°C° 0 mm 8 mps 747 mmHg 37%
19:00 +34°C° 0 mm 8 mps 747 mmHg 44%
20:00 +33°C° 0 mm 8 mps 748 mmHg 51%
21:00 +32°C° 0 mm 8 mps 749 mmHg 57%
22:00 +29°C° 0 mm 8 mps 749 mmHg 63%
23:00 +29°C° 0 mm 7 mps 749 mmHg 63%

30 November, Monday

Time Temperature Precipitation Wind Pressure Humidity
00:00 +28°C° 0 mm 5 mps 750 mmHg 62%
01:00 +27°C° 0 mm 3 mps 750 mmHg 62%
02:00 +27°C° 0 mm 4 mps 749 mmHg 63%
03:00 +26°C° 0 mm 4 mps 749 mmHg 65%
04:00 +26°C° 0 mm 4 mps 749 mmHg 66%
05:00 +26°C° 0 mm 4 mps 749 mmHg 67%
06:00 +26°C° 0 mm 4 mps 749 mmHg 68%
07:00 +26°C° 0 mm 4 mps 749 mmHg 69%
08:00 +29°C° 0 mm 5 mps 749 mmHg 58%
09:00 +32°C° 0 mm 5 mps 750 mmHg 48%
10:00 +34°C° 0 mm 6 mps 750 mmHg 37%
11:00 +36°C° 0 mm 5 mps 749 mmHg 33%
12:00 +38°C° 0 mm 4 mps 748 mmHg 29%
13:00 +39°C° 0 mm 3 mps 747 mmHg 24%
14:00 +40°C° 0 mm 3 mps 747 mmHg 23%
15:00 +40°C° 0 mm 3 mps 746 mmHg 21%
16:00 +42°C° 0 mm 3 mps 746 mmHg 20%
17:00 +40°C° 0 mm 4 mps 746 mmHg 28%
18:00 +36°C° 0 mm 5 mps 746 mmHg 36%
19:00 +34°C° 0 mm 5 mps 747 mmHg 45%
20:00 +33°C° 0 mm 6 mps 747 mmHg 50%
21:00 +30°C° 0 mm 6 mps 748 mmHg 55%
22:00 +29°C° 0 mm 6 mps 749 mmHg 60%
23:00 +28°C° 0 mm 5 mps 749 mmHg 63%

1 December, Tuesday

Time Temperature Precipitation Wind Pressure Humidity
00:00 +28°C° 0 mm 4 mps 749 mmHg 65%
01:00 +27°C° 0 mm 3 mps 749 mmHg 67%
02:00 +26°C° 0 mm 3 mps 749 mmHg 70%
03:00 +26°C° 0 mm 2 mps 749 mmHg 72%
04:00 +25°C° 0 mm 2 mps 748 mmHg 74%
05:00 +26°C° 0 mm 2 mps 749 mmHg 74%
06:00 +26°C° 0 mm 3 mps 749 mmHg 74%
07:00 +26°C° 0 mm 3 mps 749 mmHg 74%
08:00 +28°C° 0 mm 4 mps 749 mmHg 65%
09:00 +30°C° 0 mm 4 mps 750 mmHg 56%
10:00 +34°C° 0 mm 5 mps 750 mmHg 47%
11:00 +35°C° 0 mm 5 mps 749 mmHg 42%
12:00 +37°C° 0 mm 5 mps 749 mmHg 37%
13:00 +38°C° 0 mm 4 mps 748 mmHg 32%
14:00 +39°C° 0 mm 5 mps 748 mmHg 33%
15:00 +39°C° 0 mm 5 mps 747 mmHg 35%
16:00 +38°C° 0 mm 6 mps 747 mmHg 36%
17:00 +36°C° 0 mm 6 mps 747 mmHg 41%
18:00 +35°C° 0 mm 6 mps 747 mmHg 46%
19:00 +33°C° 0 mm 7 mps 748 mmHg 51%
20:00 +32°C° 0 mm 6 mps 748 mmHg 54%
21:00 +30°C° 0 mm 5 mps 749 mmHg 57%
22:00 +29°C° 0 mm 4 mps 750 mmHg 60%
23:00 +28°C° 0 mm 4 mps 749 mmHg 62%
Show more